Year,Month,Day,Hour,Minute,Value (Times are PST for temperature in C)
2012,05,16,00,00,12.70
2012,05,16,00,01,12.70
2012,05,16,00,02,12.60
2012,05,16,00,03,12.60
2012,05,16,00,04,12.60
2012,05,16,00,05,12.60
2012,05,16,00,06,12.50
2012,05,16,00,07,12.50
2012,05,16,00,08,12.50
2012,05,16,00,09,12.50
2012,05,16,00,10,12.50
2012,05,16,00,11,12.40
2012,05,16,00,12,12.40
2012,05,16,00,13,12.40
2012,05,16,00,14,12.30
2012,05,16,00,15,12.30
2012,05,16,00,16,12.30
2012,05,16,00,17,12.30
2012,05,16,00,18,12.30
2012,05,16,00,19,12.30
2012,05,16,00,20,12.30
2012,05,16,00,21,12.30
2012,05,16,00,22,12.30
2012,05,16,00,23,12.30
2012,05,16,00,24,12.30
2012,05,16,00,25,12.20
2012,05,16,00,26,12.20
2012,05,16,00,27,12.20
2012,05,16,00,28,12.20
2012,05,16,00,29,12.20
2012,05,16,00,30,12.20
2012,05,16,00,31,12.20
2012,05,16,00,32,12.10
2012,05,16,00,33,12.10
2012,05,16,00,34,12.10
2012,05,16,00,35,12.10
2012,05,16,00,36,12.00
2012,05,16,00,37,12.00
2012,05,16,00,38,12.00
2012,05,16,00,39,12.00
2012,05,16,00,40,11.90
2012,05,16,00,41,11.90
2012,05,16,00,42,11.90
2012,05,16,00,43,11.90
2012,05,16,00,44,11.90
2012,05,16,00,45,11.90
2012,05,16,00,46,11.90
2012,05,16,00,47,11.80
2012,05,16,00,48,11.80
2012,05,16,00,49,11.80
2012,05,16,00,50,11.80
2012,05,16,00,51,11.80
2012,05,16,00,52,11.80
2012,05,16,00,53,11.80
2012,05,16,00,54,11.80
2012,05,16,00,55,11.80
2012,05,16,00,56,11.80
2012,05,16,00,57,11.80
2012,05,16,00,58,11.80
2012,05,16,00,59,11.80
2012,05,16,01,00,11.80
2012,05,16,01,01,11.80
2012,05,16,01,02,11.80
2012,05,16,01,03,11.80
2012,05,16,01,04,11.80
2012,05,16,01,05,11.80
2012,05,16,01,06,11.70
2012,05,16,01,07,11.70
2012,05,16,01,08,11.70
2012,05,16,01,09,11.70
2012,05,16,01,10,11.70
2012,05,16,01,11,11.70
2012,05,16,01,12,11.60
2012,05,16,01,13,11.60
2012,05,16,01,14,11.60
2012,05,16,01,15,11.60
2012,05,16,01,16,11.60
2012,05,16,01,17,11.60
2012,05,16,01,18,11.60
2012,05,16,01,19,11.60
2012,05,16,01,20,11.60
2012,05,16,01,21,11.60
2012,05,16,01,22,11.60
2012,05,16,01,23,11.60
2012,05,16,01,24,11.50
2012,05,16,01,25,11.40
2012,05,16,01,26,11.40
2012,05,16,01,27,11.40
2012,05,16,01,28,11.40
2012,05,16,01,29,11.40
2012,05,16,01,30,11.40
2012,05,16,01,31,11.40
2012,05,16,01,32,11.40
2012,05,16,01,33,11.40
2012,05,16,01,34,11.40
2012,05,16,01,35,11.40
2012,05,16,01,36,11.40
2012,05,16,01,37,11.40
2012,05,16,01,38,11.30
2012,05,16,01,39,11.30
2012,05,16,01,40,11.30
2012,05,16,01,41,11.30
2012,05,16,01,42,11.30
2012,05,16,01,43,11.30
2012,05,16,01,44,11.30
2012,05,16,01,45,11.30
2012,05,16,01,46,11.20
2012,05,16,01,47,11.20
2012,05,16,01,48,11.20
2012,05,16,01,49,11.10
2012,05,16,01,50,11.10
2012,05,16,01,51,11.10
2012,05,16,01,52,11.10
2012,05,16,01,53,11.10
2012,05,16,01,54,11.10
2012,05,16,01,55,11.10
2012,05,16,01,56,11.10
2012,05,16,01,57,11.10
2012,05,16,01,58,11.10
2012,05,16,01,59,11.10
2012,05,16,02,00,11.10
2012,05,16,02,01,11.10
2012,05,16,02,02,11.10
2012,05,16,02,03,11.10
2012,05,16,02,04,11.10
2012,05,16,02,05,11.10
2012,05,16,02,06,11.00
2012,05,16,02,07,10.90
2012,05,16,02,08,10.90
2012,05,16,02,09,10.90
2012,05,16,02,10,10.90
2012,05,16,02,11,10.90
2012,05,16,02,12,10.90
2012,05,16,02,13,10.90
2012,05,16,02,14,10.90
2012,05,16,02,15,10.90
2012,05,16,02,16,10.90
2012,05,16,02,17,10.90
2012,05,16,02,18,10.90
2012,05,16,02,19,10.90
2012,05,16,02,20,10.90
2012,05,16,02,21,10.90
2012,05,16,02,22,10.90
2012,05,16,02,23,10.90
2012,05,16,02,24,10.90
2012,05,16,02,25,10.90
2012,05,16,02,26,10.90
2012,05,16,02,27,10.90
2012,05,16,02,28,10.90
2012,05,16,02,29,10.90
2012,05,16,02,30,10.90
2012,05,16,02,31,10.90
2012,05,16,02,32,10.90
2012,05,16,02,33,10.90
2012,05,16,02,34,10.90
2012,05,16,02,35,10.90
2012,05,16,02,36,10.90
2012,05,16,02,37,10.90
2012,05,16,02,38,10.90
2012,05,16,02,39,10.90
2012,05,16,02,40,10.90
2012,05,16,02,41,10.90
2012,05,16,02,42,10.90
2012,05,16,02,43,10.90
2012,05,16,02,44,10.90
2012,05,16,02,45,10.90
2012,05,16,02,46,10.90
2012,05,16,02,47,10.90
2012,05,16,02,48,10.90
2012,05,16,02,49,10.90
2012,05,16,02,50,10.90
2012,05,16,02,51,10.90
2012,05,16,02,52,10.90
2012,05,16,02,53,10.80
2012,05,16,02,54,10.80
2012,05,16,02,55,10.80
2012,05,16,02,56,10.70
2012,05,16,02,57,10.70
2012,05,16,02,58,10.70
2012,05,16,02,59,10.70
2012,05,16,03,00,10.60
2012,05,16,03,01,10.60
2012,05,16,03,02,10.60
2012,05,16,03,03,10.60
2012,05,16,03,04,10.60
2012,05,16,03,05,10.60
2012,05,16,03,06,10.60
2012,05,16,03,07,10.60
2012,05,16,03,08,10.60
2012,05,16,03,09,10.60
2012,05,16,03,10,10.60
2012,05,16,03,11,10.50
2012,05,16,03,12,10.40
2012,05,16,03,13,10.40
2012,05,16,03,14,10.40
2012,05,16,03,15,10.40
2012,05,16,03,16,10.40
2012,05,16,03,17,10.40
2012,05,16,03,18,10.40
2012,05,16,03,19,10.40
2012,05,16,03,20,10.40
2012,05,16,03,21,10.40
2012,05,16,03,22,10.40
2012,05,16,03,23,10.40
2012,05,16,03,24,10.40
2012,05,16,03,25,10.40
2012,05,16,03,26,10.40
2012,05,16,03,27,10.40
2012,05,16,03,28,10.40
2012,05,16,03,29,10.40
2012,05,16,03,30,10.40
2012,05,16,03,31,10.40
2012,05,16,03,32,10.40
2012,05,16,03,33,10.40
2012,05,16,03,34,10.30
2012,05,16,03,35,10.30
2012,05,16,03,36,10.30
2012,05,16,03,37,10.30
2012,05,16,03,38,10.30
2012,05,16,03,39,10.30
2012,05,16,03,40,10.30
2012,05,16,03,41,10.30
2012,05,16,03,42,10.30
2012,05,16,03,43,10.30
2012,05,16,03,44,10.30
2012,05,16,03,45,10.30
2012,05,16,03,46,10.30
2012,05,16,03,47,10.30
2012,05,16,03,48,10.30
2012,05,16,03,49,10.30
2012,05,16,03,50,10.30
2012,05,16,03,51,10.30
2012,05,16,03,52,10.30
2012,05,16,03,53,10.30
2012,05,16,03,54,10.30
2012,05,16,03,55,10.30
2012,05,16,03,56,10.30
2012,05,16,03,57,10.30
2012,05,16,03,58,10.20
2012,05,16,03,59,10.20
2012,05,16,04,00,10.20
2012,05,16,04,01,10.20
2012,05,16,04,02,10.20
2012,05,16,04,03,10.20
2012,05,16,04,04,10.20
2012,05,16,04,05,10.20
2012,05,16,04,06,10.20
2012,05,16,04,07,10.20
2012,05,16,04,08,10.20
2012,05,16,04,09,10.20
2012,05,16,04,10,10.20
2012,05,16,04,11,10.20
2012,05,16,04,12,10.10
2012,05,16,04,13,10.10
2012,05,16,04,14,10.10
2012,05,16,04,15,10.10
2012,05,16,04,16,10.10
2012,05,16,04,17,10.10
2012,05,16,04,18,10.10
2012,05,16,04,19,10.10
2012,05,16,04,20,10.10
2012,05,16,04,21,10.00
2012,05,16,04,22,9.90
2012,05,16,04,23,9.90
2012,05,16,04,24,9.90
2012,05,16,04,25,9.90
2012,05,16,04,26,9.90
2012,05,16,04,27,9.90
2012,05,16,04,28,9.90
2012,05,16,04,29,9.90
2012,05,16,04,30,9.90
2012,05,16,04,31,9.80
2012,05,16,04,32,9.80
2012,05,16,04,33,9.80
2012,05,16,04,34,9.80
2012,05,16,04,35,9.80
2012,05,16,04,36,9.70
2012,05,16,04,37,9.70
2012,05,16,04,38,9.70
2012,05,16,04,39,9.70
2012,05,16,04,40,9.70
2012,05,16,04,41,9.70
2012,05,16,04,42,9.70
2012,05,16,04,43,9.70
2012,05,16,04,44,9.70
2012,05,16,04,45,9.60
2012,05,16,04,46,9.60
2012,05,16,04,47,9.60
2012,05,16,04,48,9.60
2012,05,16,04,49,9.50
2012,05,16,04,50,9.50
2012,05,16,04,51,9.50
2012,05,16,04,52,9.50
2012,05,16,04,53,9.50
2012,05,16,04,54,9.50
2012,05,16,04,55,9.40
2012,05,16,04,56,9.40
2012,05,16,04,57,9.40
2012,05,16,04,58,9.40
2012,05,16,04,59,9.40
2012,05,16,05,00,9.40
2012,05,16,05,01,9.40
2012,05,16,05,02,9.50
2012,05,16,05,03,9.50
2012,05,16,05,04,9.40
2012,05,16,05,05,9.40
2012,05,16,05,06,9.40
2012,05,16,05,07,9.40
2012,05,16,05,08,9.40
2012,05,16,05,09,9.40
2012,05,16,05,10,9.40
2012,05,16,05,11,9.30
2012,05,16,05,12,9.30
2012,05,16,05,13,9.30
2012,05,16,05,14,9.30
2012,05,16,05,15,9.30
2012,05,16,05,16,9.30
2012,05,16,05,17,9.30
2012,05,16,05,18,9.20
2012,05,16,05,19,9.20
2012,05,16,05,20,9.20
2012,05,16,05,21,9.20
2012,05,16,05,22,9.20
2012,05,16,05,23,9.20
2012,05,16,05,24,9.20
2012,05,16,05,25,9.20
2012,05,16,05,26,9.20
2012,05,16,05,27,9.20
2012,05,16,05,28,9.20
2012,05,16,05,29,9.10
2012,05,16,05,30,9.10
2012,05,16,05,31,9.10
2012,05,16,05,32,9.10
2012,05,16,05,33,9.00
2012,05,16,05,34,9.00
2012,05,16,05,35,9.00
2012,05,16,05,36,9.00
2012,05,16,05,37,9.00
2012,05,16,05,38,8.90
2012,05,16,05,39,8.90
2012,05,16,05,40,8.90
2012,05,16,05,41,8.90
2012,05,16,05,42,8.80
2012,05,16,05,43,8.80
2012,05,16,05,44,8.80
2012,05,16,05,45,8.80
2012,05,16,05,46,8.70
2012,05,16,05,47,8.70
2012,05,16,05,48,8.70
2012,05,16,05,49,8.70
2012,05,16,05,50,8.70
2012,05,16,05,51,8.70
2012,05,16,05,52,8.70
2012,05,16,05,53,8.70
2012,05,16,05,54,8.70
2012,05,16,05,55,8.70
2012,05,16,05,56,8.70
2012,05,16,05,57,8.70
2012,05,16,05,58,8.70
2012,05,16,05,59,8.70
2012,05,16,06,00,8.70
2012,05,16,06,01,8.60
2012,05,16,06,02,8.60
2012,05,16,06,03,8.60
2012,05,16,06,04,8.60
2012,05,16,06,05,8.60
2012,05,16,06,06,8.70
2012,05,16,06,07,8.70
2012,05,16,06,08,8.70
2012,05,16,06,09,8.70
2012,05,16,06,10,8.70
2012,05,16,06,11,8.70
2012,05,16,06,12,8.70
2012,05,16,06,13,8.70
2012,05,16,06,14,8.70
2012,05,16,06,15,8.70
2012,05,16,06,16,8.70
2012,05,16,06,17,8.70
2012,05,16,06,18,8.70
2012,05,16,06,19,8.70
2012,05,16,06,20,8.70
2012,05,16,06,21,8.70
2012,05,16,06,22,8.60
2012,05,16,06,23,8.60
2012,05,16,06,24,8.60
2012,05,16,06,25,8.60
2012,05,16,06,26,8.70
2012,05,16,06,27,8.70
2012,05,16,06,28,8.70
2012,05,16,06,29,8.70
2012,05,16,06,30,8.70
2012,05,16,06,31,8.70
2012,05,16,06,32,8.70
2012,05,16,06,33,8.70
2012,05,16,06,34,8.70
2012,05,16,06,35,8.70
2012,05,16,06,36,8.70
2012,05,16,06,37,8.80
2012,05,16,06,38,8.80
2012,05,16,06,39,8.80
2012,05,16,06,40,8.80
2012,05,16,06,41,8.80
2012,05,16,06,42,8.80
2012,05,16,06,43,8.90
2012,05,16,06,44,8.90
2012,05,16,06,45,8.90
2012,05,16,06,46,8.90
2012,05,16,06,47,8.90
2012,05,16,06,48,8.90
2012,05,16,06,49,8.90
2012,05,16,06,50,9.00
2012,05,16,06,51,9.00
2012,05,16,06,52,9.00
2012,05,16,06,53,9.00
2012,05,16,06,54,9.00
2012,05,16,06,55,9.00
2012,05,16,06,56,9.00
2012,05,16,06,57,9.00
2012,05,16,06,58,9.10
2012,05,16,06,59,9.10
2012,05,16,07,00,9.10
2012,05,16,07,01,9.10
2012,05,16,07,02,9.10
2012,05,16,07,03,9.10
2012,05,16,07,04,9.10
2012,05,16,07,05,9.20
2012,05,16,07,06,9.20
2012,05,16,07,07,9.20
2012,05,16,07,08,9.20
2012,05,16,07,09,9.20
2012,05,16,07,10,9.20
2012,05,16,07,11,9.20
2012,05,16,07,12,9.20
2012,05,16,07,13,9.20
2012,05,16,07,14,9.20
2012,05,16,07,15,9.20
2012,05,16,07,16,9.20
2012,05,16,07,17,9.30
2012,05,16,07,18,9.30
2012,05,16,07,19,9.30
2012,05,16,07,20,9.30
2012,05,16,07,21,9.30
2012,05,16,07,22,9.30
2012,05,16,07,23,9.30
2012,05,16,07,24,9.30
2012,05,16,07,25,9.40
2012,05,16,07,26,9.40
2012,05,16,07,27,9.40
2012,05,16,07,28,9.40
2012,05,16,07,29,9.40
2012,05,16,07,30,9.40
2012,05,16,07,31,9.50
2012,05,16,07,32,9.50
2012,05,16,07,33,9.50
2012,05,16,07,34,9.50
2012,05,16,07,35,9.50
2012,05,16,07,36,9.50
2012,05,16,07,37,9.50
2012,05,16,07,38,9.50
2012,05,16,07,39,9.50
2012,05,16,07,40,9.50
2012,05,16,07,41,9.60
2012,05,16,07,42,9.60
2012,05,16,07,43,9.70
2012,05,16,07,44,9.70
2012,05,16,07,45,9.70
2012,05,16,07,46,9.70
2012,05,16,07,47,9.70
2012,05,16,07,48,9.80
2012,05,16,07,49,9.80
2012,05,16,07,50,9.80
2012,05,16,07,51,9.80
2012,05,16,07,52,9.80
2012,05,16,07,53,9.90
2012,05,16,07,54,9.90
2012,05,16,07,55,9.90
2012,05,16,07,56,9.90
2012,05,16,07,57,9.90
2012,05,16,07,58,9.90
2012,05,16,07,59,9.90
2012,05,16,08,00,9.90
2012,05,16,08,01,9.90
2012,05,16,08,02,9.90
2012,05,16,08,03,9.90
2012,05,16,08,04,9.90
2012,05,16,08,05,9.90
2012,05,16,08,06,10.00
2012,05,16,08,07,10.10
2012,05,16,08,08,10.10
2012,05,16,08,09,10.10
2012,05,16,08,10,10.10
2012,05,16,08,11,10.20
2012,05,16,08,12,10.20
2012,05,16,08,13,10.30
2012,05,16,08,14,10.30
2012,05,16,08,15,10.30
2012,05,16,08,16,10.40
2012,05,16,08,17,10.40
2012,05,16,08,18,10.40
2012,05,16,08,19,10.40
2012,05,16,08,20,10.40
2012,05,16,08,21,10.40
2012,05,16,08,22,10.40
2012,05,16,08,23,10.40
2012,05,16,08,24,10.40
2012,05,16,08,25,10.40
2012,05,16,08,26,10.40
2012,05,16,08,27,10.40
2012,05,16,08,28,10.40
2012,05,16,08,29,10.50
2012,05,16,08,30,10.60
2012,05,16,08,31,10.60
2012,05,16,08,32,10.70
2012,05,16,08,33,10.80
2012,05,16,08,34,10.80
2012,05,16,08,35,10.80
2012,05,16,08,36,10.70
2012,05,16,08,37,10.70
2012,05,16,08,38,10.70
2012,05,16,08,39,10.70
2012,05,16,08,40,10.70
2012,05,16,08,41,10.70
2012,05,16,08,42,10.70
2012,05,16,08,43,10.70
2012,05,16,08,44,10.70
2012,05,16,08,45,10.80
2012,05,16,08,46,10.90
2012,05,16,08,47,10.90
2012,05,16,08,48,10.90
2012,05,16,08,49,10.90
2012,05,16,08,50,11.10
2012,05,16,08,51,11.00
2012,05,16,08,52,10.90
2012,05,16,08,53,10.90
2012,05,16,08,54,11.00
2012,05,16,08,55,11.10
2012,05,16,08,56,11.10
2012,05,16,08,57,11.10
2012,05,16,08,58,11.10
2012,05,16,08,59,11.10
2012,05,16,09,00,11.20
2012,05,16,09,01,11.20
2012,05,16,09,02,11.30
2012,05,16,09,03,11.40
2012,05,16,09,04,11.50
2012,05,16,09,05,11.60
2012,05,16,09,06,11.60
2012,05,16,09,07,11.70
2012,05,16,09,08,11.80
2012,05,16,09,09,11.80
2012,05,16,09,10,11.80
2012,05,16,09,11,11.80
2012,05,16,09,12,11.80
2012,05,16,09,13,11.80
2012,05,16,09,14,11.70
2012,05,16,09,15,11.70
2012,05,16,09,16,11.70
2012,05,16,09,17,11.70
2012,05,16,09,18,11.80
2012,05,16,09,19,11.80
2012,05,16,09,20,11.90
2012,05,16,09,21,12.00
2012,05,16,09,22,12.00
2012,05,16,09,23,12.10
2012,05,16,09,24,12.10
2012,05,16,09,25,12.10
2012,05,16,09,26,12.20
2012,05,16,09,27,12.20
2012,05,16,09,28,12.30
2012,05,16,09,29,12.30
2012,05,16,09,30,12.30
2012,05,16,09,31,12.30
2012,05,16,09,32,12.30
2012,05,16,09,33,12.30
2012,05,16,09,34,12.30
2012,05,16,09,35,12.30
2012,05,16,09,36,12.30
2012,05,16,09,37,12.40
2012,05,16,09,38,12.50
2012,05,16,09,39,12.40
2012,05,16,09,40,12.40
2012,05,16,09,41,12.40
2012,05,16,09,42,12.30
2012,05,16,09,43,12.30
2012,05,16,09,44,12.30
2012,05,16,09,45,12.30
2012,05,16,09,46,12.30
2012,05,16,09,47,12.30
2012,05,16,09,48,12.40
2012,05,16,09,49,12.50
2012,05,16,09,50,12.70
2012,05,16,09,51,12.80
2012,05,16,09,52,12.80
2012,05,16,09,53,12.90
2012,05,16,09,54,13.00
2012,05,16,09,55,13.00
2012,05,16,09,56,13.10
2012,05,16,09,57,13.10
2012,05,16,09,58,13.00
2012,05,16,09,59,13.00
2012,05,16,10,00,13.00
2012,05,16,10,01,13.00
2012,05,16,10,02,12.90
2012,05,16,10,03,12.90
2012,05,16,10,04,12.90
2012,05,16,10,05,12.80
2012,05,16,10,06,12.70
2012,05,16,10,07,12.70
2012,05,16,10,08,12.60
2012,05,16,10,09,12.60
2012,05,16,10,10,12.60
2012,05,16,10,11,12.60
2012,05,16,10,12,12.60
2012,05,16,10,13,12.60
2012,05,16,10,14,12.70
2012,05,16,10,15,12.70
2012,05,16,10,16,12.80
2012,05,16,10,17,12.90
2012,05,16,10,18,13.00
2012,05,16,10,19,13.10
2012,05,16,10,20,13.10
2012,05,16,10,21,13.00
2012,05,16,10,22,13.00
2012,05,16,10,23,12.80
2012,05,16,10,24,12.80
2012,05,16,10,25,12.80
2012,05,16,10,26,12.80
2012,05,16,10,27,12.80
2012,05,16,10,28,12.90
2012,05,16,10,29,13.00
2012,05,16,10,30,13.00
2012,05,16,10,31,13.00
2012,05,16,10,32,13.00
2012,05,16,10,33,12.90
2012,05,16,10,34,12.90
2012,05,16,10,35,12.90
2012,05,16,10,36,12.80
2012,05,16,10,37,12.80
2012,05,16,10,38,12.80
2012,05,16,10,39,12.80
2012,05,16,10,40,12.70
2012,05,16,10,41,12.60
2012,05,16,10,42,12.50
2012,05,16,10,43,12.40
2012,05,16,10,44,12.30
2012,05,16,10,45,12.30
2012,05,16,10,46,12.30
2012,05,16,10,47,12.20
2012,05,16,10,48,12.20
2012,05,16,10,49,12.20
2012,05,16,10,50,12.10
2012,05,16,10,51,12.00
2012,05,16,10,52,12.10
2012,05,16,10,53,12.10
2012,05,16,10,54,12.10
2012,05,16,10,55,12.10
2012,05,16,10,56,12.10
2012,05,16,10,57,12.20
2012,05,16,10,58,12.30
2012,05,16,10,59,12.40
2012,05,16,11,00,12.40
2012,05,16,11,01,12.50
2012,05,16,11,02,12.50
2012,05,16,11,03,12.50
2012,05,16,11,04,12.50
2012,05,16,11,05,12.60
2012,05,16,11,06,12.60
2012,05,16,11,07,12.70
2012,05,16,11,08,12.80
2012,05,16,11,09,12.80
2012,05,16,11,10,12.80
2012,05,16,11,11,12.80
2012,05,16,11,12,12.80
2012,05,16,11,13,12.80
2012,05,16,11,14,12.80
2012,05,16,11,15,12.80
2012,05,16,11,16,12.90
2012,05,16,11,17,12.90
2012,05,16,11,18,12.90
2012,05,16,11,19,12.90
2012,05,16,11,20,12.90
2012,05,16,11,21,12.90
2012,05,16,11,22,13.00
2012,05,16,11,23,13.00
2012,05,16,11,24,13.00
2012,05,16,11,25,13.00
2012,05,16,11,26,13.00
2012,05,16,11,27,12.90
2012,05,16,11,28,12.80
2012,05,16,11,29,12.80
2012,05,16,11,30,12.80
2012,05,16,11,31,12.80
2012,05,16,11,32,12.90
2012,05,16,11,33,12.90
2012,05,16,11,34,12.90
2012,05,16,11,35,12.80
2012,05,16,11,36,12.80
2012,05,16,11,37,12.80
2012,05,16,11,38,12.80
2012,05,16,11,39,12.90
2012,05,16,11,40,13.00
2012,05,16,11,41,13.10
2012,05,16,11,42,13.10
2012,05,16,11,43,13.00
2012,05,16,11,44,12.90
2012,05,16,11,45,12.90
2012,05,16,11,46,13.00
2012,05,16,11,47,13.00
2012,05,16,11,48,12.90
2012,05,16,11,49,12.80
2012,05,16,11,50,12.70
2012,05,16,11,51,12.70
2012,05,16,11,52,12.80
2012,05,16,11,53,12.80
2012,05,16,11,54,12.80
2012,05,16,11,55,12.80
2012,05,16,11,56,12.80
2012,05,16,11,57,12.80
2012,05,16,11,58,12.90
2012,05,16,11,59,13.00
2012,05,16,12,00,13.10
2012,05,16,12,01,13.20
2012,05,16,12,02,13.20
2012,05,16,12,03,13.20
2012,05,16,12,04,13.20
2012,05,16,12,05,13.20
2012,05,16,12,06,13.20
2012,05,16,12,07,13.20
2012,05,16,12,08,13.20
2012,05,16,12,09,13.20
2012,05,16,12,10,13.20
2012,05,16,12,11,13.20
2012,05,16,12,12,13.30
2012,05,16,12,13,13.30
2012,05,16,12,14,13.30
2012,05,16,12,15,13.20
2012,05,16,12,16,13.10
2012,05,16,12,17,13.10
2012,05,16,12,18,13.10
2012,05,16,12,19,13.00
2012,05,16,12,20,13.00
2012,05,16,12,21,13.10
2012,05,16,12,22,13.20
2012,05,16,12,23,13.20
2012,05,16,12,24,13.30
2012,05,16,12,25,13.30
2012,05,16,12,26,13.20
2012,05,16,12,27,13.20
2012,05,16,12,28,13.20
2012,05,16,12,29,13.30
2012,05,16,12,30,13.20
2012,05,16,12,31,13.20
2012,05,16,12,32,13.10
2012,05,16,12,33,13.10
2012,05,16,12,34,13.20
2012,05,16,12,35,13.30
2012,05,16,12,36,13.30
2012,05,16,12,37,13.40
2012,05,16,12,38,13.40
2012,05,16,12,39,13.40
2012,05,16,12,40,13.40
2012,05,16,12,41,13.40
2012,05,16,12,42,13.30
2012,05,16,12,43,13.40
2012,05,16,12,44,13.50
2012,05,16,12,45,13.60
2012,05,16,12,46,13.60
2012,05,16,12,47,13.70
2012,05,16,12,48,13.80
2012,05,16,12,49,13.90
2012,05,16,12,50,14.00
2012,05,16,12,51,14.10
2012,05,16,12,52,14.10
2012,05,16,12,53,14.20
2012,05,16,12,54,14.20
2012,05,16,12,55,14.20
2012,05,16,12,56,14.20
2012,05,16,12,57,14.20
2012,05,16,12,58,14.10
2012,05,16,12,59,14.10
2012,05,16,13,00,14.00
2012,05,16,13,01,13.90
2012,05,16,13,02,13.90
2012,05,16,13,03,13.80
2012,05,16,13,04,13.70
2012,05,16,13,05,13.70
2012,05,16,13,06,13.70
2012,05,16,13,07,13.70
2012,05,16,13,08,13.70
2012,05,16,13,09,13.80
2012,05,16,13,10,13.80
2012,05,16,13,11,13.90
2012,05,16,13,12,13.90
2012,05,16,13,13,14.00
2012,05,16,13,14,14.10
2012,05,16,13,15,14.00
2012,05,16,13,16,14.00
2012,05,16,13,17,13.90
2012,05,16,13,18,13.80
2012,05,16,13,19,13.90
2012,05,16,13,20,13.90
2012,05,16,13,21,13.90
2012,05,16,13,22,14.00
2012,05,16,13,23,14.10
2012,05,16,13,24,14.20
2012,05,16,13,25,14.20
2012,05,16,13,26,14.30
2012,05,16,13,27,14.30
2012,05,16,13,28,14.40
2012,05,16,13,29,14.50
2012,05,16,13,30,14.60
2012,05,16,13,31,14.50
2012,05,16,13,32,14.50
2012,05,16,13,33,14.60
2012,05,16,13,34,14.60
2012,05,16,13,35,14.70
2012,05,16,13,36,14.70
2012,05,16,13,37,14.80
2012,05,16,13,38,14.90
2012,05,16,13,39,14.90
2012,05,16,13,40,15.00
2012,05,16,13,41,15.00
2012,05,16,13,42,15.10
2012,05,16,13,43,15.10
2012,05,16,13,44,15.00
2012,05,16,13,45,15.00
2012,05,16,13,46,15.10
2012,05,16,13,47,15.10
2012,05,16,13,48,15.20
2012,05,16,13,49,15.20
2012,05,16,13,50,15.30
2012,05,16,13,51,15.30
2012,05,16,13,52,15.30
2012,05,16,13,53,15.30
2012,05,16,13,54,15.30
2012,05,16,13,55,15.20
2012,05,16,13,56,15.10
2012,05,16,13,57,15.00
2012,05,16,13,58,15.00
2012,05,16,13,59,15.00
2012,05,16,14,00,15.00
2012,05,16,14,01,15.00
2012,05,16,14,02,14.90
2012,05,16,14,03,14.90
2012,05,16,14,04,15.00
2012,05,16,14,05,15.00
2012,05,16,14,06,15.10
2012,05,16,14,07,15.20
2012,05,16,14,08,15.30
2012,05,16,14,09,15.40
2012,05,16,14,10,15.50
2012,05,16,14,11,15.50
2012,05,16,14,12,15.50
2012,05,16,14,13,15.50
2012,05,16,14,14,15.60
2012,05,16,14,15,15.50
2012,05,16,14,16,15.50
2012,05,16,14,17,15.50
2012,05,16,14,18,15.50
2012,05,16,14,19,15.50
2012,05,16,14,20,15.60
2012,05,16,14,21,15.50
2012,05,16,14,22,15.40
2012,05,16,14,23,15.40
2012,05,16,14,24,15.50
2012,05,16,14,25,15.50
2012,05,16,14,26,15.50
2012,05,16,14,27,15.50
2012,05,16,14,28,15.50
2012,05,16,14,29,15.50
2012,05,16,14,30,15.50
2012,05,16,14,31,15.30
2012,05,16,14,32,15.30
2012,05,16,14,33,15.30
2012,05,16,14,34,15.30
2012,05,16,14,35,15.40
2012,05,16,14,36,15.50
2012,05,16,14,37,15.60
2012,05,16,14,38,15.60
2012,05,16,14,39,15.70
2012,05,16,14,40,15.70
2012,05,16,14,41,15.70
2012,05,16,14,42,15.60
2012,05,16,14,43,15.60
2012,05,16,14,44,15.70
2012,05,16,14,45,15.70
2012,05,16,14,46,15.80
2012,05,16,14,47,15.80
2012,05,16,14,48,15.80
2012,05,16,14,49,15.80
2012,05,16,14,50,15.60
2012,05,16,14,51,15.60
2012,05,16,14,52,15.50
2012,05,16,14,53,15.50
2012,05,16,14,54,15.60
2012,05,16,14,55,15.70
2012,05,16,14,56,15.70
2012,05,16,14,57,15.70
2012,05,16,14,58,15.70
2012,05,16,14,59,15.80
2012,05,16,15,00,15.90
2012,05,16,15,01,15.90
2012,05,16,15,02,16.00
2012,05,16,15,03,16.10
2012,05,16,15,04,16.10
2012,05,16,15,05,16.20
2012,05,16,15,06,16.10
2012,05,16,15,07,16.10
2012,05,16,15,08,16.00
2012,05,16,15,09,15.90
2012,05,16,15,10,15.90
2012,05,16,15,11,16.10
2012,05,16,15,12,16.10
2012,05,16,15,13,16.10
2012,05,16,15,14,16.10
2012,05,16,15,15,16.10
2012,05,16,15,16,16.10
2012,05,16,15,17,16.20
2012,05,16,15,18,16.20
2012,05,16,15,19,16.20
2012,05,16,15,20,16.10
2012,05,16,15,21,16.10
2012,05,16,15,22,16.00
2012,05,16,15,23,15.90
2012,05,16,15,24,15.80
2012,05,16,15,25,15.80
2012,05,16,15,26,15.80
2012,05,16,15,27,15.80
2012,05,16,15,28,15.80
2012,05,16,15,29,15.80
2012,05,16,15,30,15.80
2012,05,16,15,31,15.80
2012,05,16,15,32,15.70
2012,05,16,15,33,15.70
2012,05,16,15,34,15.70
2012,05,16,15,35,15.70
2012,05,16,15,36,15.60
2012,05,16,15,37,15.70
2012,05,16,15,38,15.70
2012,05,16,15,39,15.70
2012,05,16,15,40,15.70
2012,05,16,15,41,15.70
2012,05,16,15,42,15.70
2012,05,16,15,43,15.70
2012,05,16,15,44,15.70
2012,05,16,15,45,15.70
2012,05,16,15,46,15.80
2012,05,16,15,47,15.90
2012,05,16,15,48,16.00
2012,05,16,15,49,16.10
2012,05,16,15,50,16.20
2012,05,16,15,51,16.30
2012,05,16,15,52,16.50
2012,05,16,15,53,16.60
2012,05,16,15,54,16.70
2012,05,16,15,55,16.70
2012,05,16,15,56,16.60
2012,05,16,15,57,16.60
2012,05,16,15,58,16.70
2012,05,16,15,59,16.60
2012,05,16,16,00,16.60
2012,05,16,16,01,16.60
2012,05,16,16,02,16.60
2012,05,16,16,03,16.70
2012,05,16,16,04,16.80
2012,05,16,16,05,16.80
2012,05,16,16,06,16.90
2012,05,16,16,07,16.90
2012,05,16,16,08,16.90
2012,05,16,16,09,16.80
2012,05,16,16,10,16.80
2012,05,16,16,11,16.90
2012,05,16,16,12,16.90
2012,05,16,16,13,17.00
2012,05,16,16,14,17.00
2012,05,16,16,15,17.10
2012,05,16,16,16,17.10
2012,05,16,16,17,17.20
2012,05,16,16,18,17.10
2012,05,16,16,19,17.10
2012,05,16,16,20,17.00
2012,05,16,16,21,17.00
2012,05,16,16,22,17.00
2012,05,16,16,23,16.90
2012,05,16,16,24,16.80
2012,05,16,16,25,16.80
2012,05,16,16,26,16.80
2012,05,16,16,27,16.90
2012,05,16,16,28,16.90
2012,05,16,16,29,16.80
2012,05,16,16,30,16.70
2012,05,16,16,31,16.70
2012,05,16,16,32,16.60
2012,05,16,16,33,16.60
2012,05,16,16,34,16.60
2012,05,16,16,35,16.60
2012,05,16,16,36,16.60
2012,05,16,16,37,16.60
2012,05,16,16,38,16.50
2012,05,16,16,39,16.40
2012,05,16,16,40,16.40
2012,05,16,16,41,16.30
2012,05,16,16,42,16.30
2012,05,16,16,43,16.20
2012,05,16,16,44,16.20
2012,05,16,16,45,16.20
2012,05,16,16,46,16.20
2012,05,16,16,47,16.20
2012,05,16,16,48,16.20
2012,05,16,16,49,16.30
2012,05,16,16,50,16.30
2012,05,16,16,51,16.20
2012,05,16,16,52,16.20
2012,05,16,16,53,16.10
2012,05,16,16,54,16.10
2012,05,16,16,55,16.10
2012,05,16,16,56,16.10
2012,05,16,16,57,16.20
2012,05,16,16,58,16.20
2012,05,16,16,59,16.20
2012,05,16,17,00,16.30
2012,05,16,17,01,16.40
2012,05,16,17,02,16.40
2012,05,16,17,03,16.40
2012,05,16,17,04,16.40
2012,05,16,17,05,16.40
2012,05,16,17,06,16.40
2012,05,16,17,07,16.40
2012,05,16,17,08,16.40
2012,05,16,17,09,16.40
2012,05,16,17,10,16.30
2012,05,16,17,11,16.30
2012,05,16,17,12,16.30
2012,05,16,17,13,16.30
2012,05,16,17,14,16.30
2012,05,16,17,15,16.30
2012,05,16,17,16,16.30
2012,05,16,17,17,16.30
2012,05,16,17,18,16.30
2012,05,16,17,19,16.40
2012,05,16,17,20,16.40
2012,05,16,17,21,16.50
2012,05,16,17,22,16.60
2012,05,16,17,23,16.70
2012,05,16,17,24,16.70
2012,05,16,17,25,16.70
2012,05,16,17,26,16.70
2012,05,16,17,27,16.60
2012,05,16,17,28,16.50
2012,05,16,17,29,16.40